| time (UTC) | temp C | wind direction | speed KPH | gust KPH | rain 1hr cm | rain 24hr cm | rain mn cm | humidity % | barometer mb |
| 20260503220056 | 16 | 302 | 6.4 | 19.3 | 0.00 | 0.00 | 0.00 | 28 | 1010.4 |
| 20260503214556 | 16 | 296 | 6.4 | 24.1 | 0.00 | 0.00 | 0.00 | 28 | 1010.6 |
| 20260503213107 | 16 | 261 | 6.4 | 17.7 | 0.00 | 0.00 | 0.00 | 28 | 1010.4 |
| 20260503211613 | 16 | 298 | 4.8 | 20.9 | 0.00 | 0.00 | 0.00 | 28 | 1010.5 |
| 20260503210055 | 16 | 277 | 8.0 | 25.7 | 0.00 | 0.00 | 0.00 | 28 | 1010.8 |
| 20260503204555 | 16 | 323 | 4.8 | 27.4 | 0.00 | 0.00 | 0.00 | 28 | 1010.5 |
| 20260503203107 | 16 | 271 | 11.3 | 25.7 | 0.00 | 0.00 | 0.00 | 27 | 1010.6 |
| 20260503201556 | 16 | 300 | 9.7 | 24.1 | 0.00 | 0.00 | 0.00 | 27 | 1010.6 |
| 20260503200053 | 16 | 259 | 8.0 | 19.3 | 0.00 | 0.00 | 0.00 | 28 | 1011.0 |
| 20260503194558 | 15 | 276 | 4.8 | 17.7 | 0.00 | 0.00 | 0.00 | 29 | 1010.7 |
| 20260503193054 | 15 | 251 | 9.7 | 29.0 | 0.00 | 0.00 | 0.00 | 29 | 1011.1 |
| 20260503191559 | 15 | 304 | 6.4 | 22.5 | 0.00 | 0.00 | 0.00 | 30 | 1011.2 |
| 20260503190053 | 15 | 229 | 6.4 | 20.9 | 0.00 | 0.00 | 0.00 | 31 | 1011.2 |
| 20260503184551 | 14 | 250 | 6.4 | 20.9 | 0.00 | 0.00 | 0.00 | 33 | 1011.4 |
| 20260503183053 | 13 | 313 | 4.8 | 20.9 | 0.00 | 0.00 | 0.00 | 35 | 1011.5 |
| 20260503181602 | 13 | 302 | 8.0 | 20.9 | 0.00 | 0.00 | 0.00 | 36 | 1011.9 |
| 20260503174557 | 12 | 294 | 6.4 | 19.3 | 0.00 | 0.00 | 0.00 | 36 | 1012.0 |
| 20260503173100 | 12 | 301 | 4.8 | 19.3 | 0.00 | 0.00 | 0.00 | 38 | 1012.2 |
| 20260503171553 | 12 | 60 | 4.8 | 19.3 | 0.00 | 0.00 | 0.00 | 38 | 1012.0 |
| 20260503081557 | 8 | 0 | 1.6 | 9.7 | 0.00 | 0.00 | 0.00 | 50 | 1010.4 |
| 20260503071603 | 9 | 38 | 0.0 | 6.4 | 0.00 | 0.00 | 0.00 | 48 | 1010.3 |
| 20260503060107 | 10 | 0 | 0.0 | 1.6 | 0.00 | 0.00 | 0.00 | 48 | 1010.7 |
| 20260503054556 | 10 | 0 | 0.0 | 4.8 | 0.00 | 0.00 | 0.00 | 47 | 1010.7 |
| 20260503053055 | 11 | 22 | 0.0 | 6.4 | 0.00 | 0.00 | 0.00 | 45 | 1010.6 |
| 20260503051555 | 11 | 0 | 0.0 | 4.8 | 0.00 | 0.00 | 0.00 | 45 | 1010.6 |
| 20260503050058 | 11 | 22 | 0.0 | 6.4 | 0.00 | 0.00 | 0.00 | 44 | 1011.0 |
| 20260503044605 | 11 | 22 | 1.6 | 12.9 | 0.00 | 0.00 | 0.00 | 43 | 1011.0 |
| 20260503043100 | 11 | 0 | 0.0 | 4.8 | 0.00 | 0.00 | 0.00 | 43 | 1011.0 |
| 20260503041556 | 11 | 0 | 0.0 | 6.4 | 0.00 | 0.00 | 0.00 | 43 | 1011.1 |
| 20260503040100 | 11 | 0 | 0.0 | 6.4 | 0.00 | 0.00 | 0.00 | 44 | 1011.1 |
| 20260503034558 | 11 | 300 | 0.0 | 4.8 | 0.00 | 0.00 | 0.00 | 42 | 1011.0 |
| 20260503033109 | 11 | 300 | 0.0 | 4.8 | 0.00 | 0.00 | 0.00 | 42 | 1010.8 |
| 20260503031600 | 11 | 300 | 0.0 | 4.8 | 0.00 | 0.00 | 0.00 | 43 | 1010.7 |
| 20260503030055 | 12 | 0 | 0.0 | 4.8 | 0.00 | 0.00 | 0.00 | 42 | 1010.7 |
| 20260503024555 | 12 | 0 | 1.6 | 11.3 | 0.00 | 0.00 | 0.00 | 39 | 1010.6 |
| 20260503023101 | 12 | 311 | 0.0 | 4.8 | 0.00 | 0.00 | 0.00 | 41 | 1010.7 |
| 20260503021555 | 12 | 311 | 0.0 | 6.4 | 0.00 | 0.00 | 0.00 | 40 | 1010.7 |
| 20260503020052 | 12 | 0 | 1.6 | 6.4 | 0.00 | 0.00 | 0.00 | 40 | 1010.6 |
| 20260503014557 | 13 | 0 | 0.0 | 4.8 | 0.00 | 0.00 | 0.00 | 39 | 1010.8 |
| 20260503013105 | 13 | 313 | 0.0 | 4.8 | 0.00 | 0.00 | 0.00 | 39 | 1010.9 |
| 20260503011604 | 13 | 0 | 1.6 | 8.0 | 0.00 | 0.00 | 0.00 | 37 | 1010.9 |
| 20260503010058 | 13 | 0 | 1.6 | 12.9 | 0.00 | 0.00 | 0.00 | 37 | 1010.6 |
| 20260503004607 | 13 | 291 | 1.6 | 9.7 | 0.00 | 0.00 | 0.00 | 37 | 1010.4 |
| 20260503003105 | 13 | 277 | 1.6 | 6.4 | 0.00 | 0.00 | 0.00 | 38 | 1010.3 |
| 20260503001609 | 14 | 277 | 0.0 | 4.8 | 0.00 | 0.00 | 0.00 | 39 | 1010.1 |
| 20260503000112 | 14 | 277 | 0.0 | 6.4 | 0.00 | 0.00 | 0.00 | 38 | 1010.1 |
| 20260502234559 | 14 | 277 | 0.0 | 11.3 | 0.00 | 0.00 | 0.00 | 37 | 1010.0 |
| 20260502233101 | 15 | 279 | 1.6 | 9.7 | 0.00 | 0.00 | 0.00 | 37 | 1010.2 |
| 20260502231553 | 15 | 279 | 1.6 | 6.4 | 0.00 | 0.00 | 0.00 | 36 | 1010.1 |
| 20260502230116 | 15 | 277 | 1.6 | 6.4 | 0.00 | 0.00 | 0.00 | 36 | 1010.1 |
| 20260502224607 | 15 | 277 | 3.2 | 9.7 | 0.00 | 0.00 | 0.00 | 36 | 1010.0 |
| 20260502223055 | 15 | 275 | 4.8 | 12.9 | 0.00 | 0.00 | 0.00 | 35 | 1009.7 |
| 20260502221552 | 16 | 302 | 3.2 | 12.9 | 0.00 | 0.00 | 0.00 | 35 | 1009.9 |